N5GAH-13 Weather Reports


Display with metric or nautical units.
time (UTC)temp
F
wind
direction
speed
MPH
gust
MPH
rain 1hr
in
rain 24hr
in
rain mn
in
humidity
%
barometer
mb
20260510231001 65 57 17.0 28.0 0.00 0.00 0.00 64 1025.1
20260510224001 65 51 19.0 34.0 0.00 0.00 0.00 64 1024.5
20260510214001 68 29 16.0 28.0 0.00 0.00 0.00 62 1024.0
20260510211001 72 33 16.0 28.0 0.00 0.00 0.00 59 1023.2
20260510191001 69 31 20.0 35.0 0.00 0.00 0.00 63 1022.3
20260510184001 75 19 18.0 33.0 0.00 0.00 0.00 57 1023.3
20260510181001 76 17 21.0 35.0 0.00 0.00 0.00 56 1021.9
20260510171001 81 25 12.0 26.0 0.00 0.00 0.00 42 1019.8
20260510164001 81 30 8.0 14.0 0.00 0.00 0.00 43 1019.4
20260510161001 78 13 8.0 16.0 0.00 0.00 0.00 42 1019.1
20260510151001 76 3 3.0 6.0 0.00 0.00 0.00 46 1018.4
20260510144000 73 31 5.0 10.0 0.00 0.00 0.00 54 1018.2
20260510141001 69 21 6.0 11.0 0.00 0.00 0.00 61 1018.1
20260510134000 67 15 4.0 12.0 0.00 0.00 0.00 70 1018.1
20260510131000 65 333 2.0 4.0 0.00 0.00 0.00 73 1016.8
20260510124000 65 297 4.0 9.0 0.00 0.00 0.00 74 1016.2
20260510121000 65 199 5.0 11.0 0.00 0.00 0.00 72 1015.1
20260510114000 65 201 6.0 10.0 0.00 0.00 0.00 70 1015.0
20260510111000 66 193 5.0 11.0 0.00 0.00 0.00 68 1014.7
20260510104000 67 200 4.0 9.0 0.00 0.00 0.00 65 1014.8
20260510101001 68 213 5.0 11.0 0.00 0.00 0.00 63 1015.0
20260510094000 69 201 7.0 15.0 0.00 0.00 0.00 61 1014.7
20260510091006 70 202 7.0 14.0 0.00 0.00 0.00 58 1014.5
20260510091000 70 202 7.0 14.0 0.00 0.00 0.00 58 1014.5
20260510084000 70 204 8.0 13.0 0.00 0.00 0.00 53 1014.3
20260510081001 71 207 8.0 14.0 0.00 0.00 0.00 48 1014.4
20260510074001 72 205 8.0 16.0 0.00 0.00 0.00 42 1014.6
20260510071001 72 203 8.0 16.0 0.00 0.00 0.00 39 1014.9
20260510061002 73 204 7.0 13.0 0.00 0.00 0.00 35 1015.0
20260510051000 75 201 7.0 15.0 0.00 0.00 0.00 32 1014.8
20260510044001 76 196 7.0 14.0 0.00 0.00 0.00 29 1014.7
20260510041001 78 199 7.0 15.0 0.00 0.00 0.00 25 1014.5
20260510034001 78 200 6.0 11.0 0.00 0.00 0.00 22 1014.4
20260510031001 79 203 5.0 8.0 0.00 0.00 0.00 20 1014.2
20260510024001 81 201 5.0 9.0 0.00 0.00 0.00 19 1014.1
20260510021001 83 206 5.0 9.0 0.00 0.00 0.00 18 1013.7
20260510011001 90 210 5.0 9.0 0.00 0.00 0.00 14 1013.0
20260510004001 93 244 6.0 11.0 0.00 0.00 0.00 12 1012.9
20260509234001 96 226 8.0 15.0 0.00 0.00 0.00 11 1013.1